London-Corbin, KY

2:26 PM EDT on August 16, 2017 (GMT -0400)
London-Corbin / McKee

Weather History for KLOZ - September, 2013

Change the Weather History Date:

Saturday, September 7, 2013

  Actual Average Record
Temperature  
Mean Temperature 72 °F 72 °F  
Max Temperature 85 °F 83 °F 93 °F (1990)
Min Temperature 59 °F 60 °F 45 °F (1988)
Degree Days  
Heating Degree Days 0 0  
Month to date heating degree days 0 0  
Since 1 July heating degree days 0 1  
Cooling Degree Days 7 7  
Month to date cooling degree days 55 53  
Year to date cooling degree days 947 1077  
Growing Degree Days 22 (Base 50)    
Moisture  
Dew Point 61 °F    
Average Humidity 73    
Maximum Humidity 97    
Minimum Humidity 48    
Precipitation  
Precipitation 0.00 in 0.10 in 1.13 in (2004)
Month to date precipitation 0.67 0.74  
Year to date precipitation 41.71  
Sea Level Pressure  
Sea Level Pressure 30.08 in    
Wind  
Wind Speed 2 mph (West)    
Max Wind Speed 9 mph    
Max Gust Speed 15 mph    
Visibility 7 miles    
Events      
T = Trace of Precipitation, MM = Missing Value Source: NWS Daily Summary

Daily Weather History Graph

Daily Weather History Graph

Search for Another Location

Airport or City:

Trip Planner

Search our weather history database for the weather conditions in past years. The results will help you decide how hot, cold, wet, or windy it might be!

Date:

Astronomy

Sep. 07, 2013 Rise Set
Actual Time 7:12 AM EDT 7:55 PM EDT
Civil Twilight 6:45 AM EDT 8:21 PM EDT
Nautical Twilight 6:14 AM EDT 8:52 PM EDT
Astronomical Twilight 5:42 AM EDT 9:24 PM EDT
Moon 9:21 AM EDT (9/7) 8:58 PM EDT (9/7)
Length of Visible Light 13h 36m
Length of Day
12h 43m
Waxing Crescent, 5% of the Moon is Illuminated
Sep 7
Waxing Crescent
Sep 12
First Quarter
Sep 19
Full
Sep 26
Last Quarter
Oct 4
New

Hourly Weather History & Observations

Time (EDT) Temp. Heat Index Dew Point Humidity Pressure Visibility Wind Dir Wind Speed Gust Speed Precip Events Conditions
12:53 AM 64.9 °F - 62.1 °F 90% 30.11 in 10.0 mi Calm Calm - N/A   Clear
1:53 AM 64.0 °F - 61.0 °F 90% 30.10 in 10.0 mi Calm Calm - N/A   Clear
2:53 AM 62.1 °F - 60.1 °F 93% 30.09 in 8.0 mi Calm Calm - N/A   Clear
3:49 AM 60.8 °F - 59.0 °F 94% 30.12 in 1.8 mi Calm Calm - 0.01 in   Clear
3:53 AM 61.0 °F - 59.0 °F 93% 30.09 in 2.5 mi Calm Calm - 0.01 in   Clear
4:05 AM 62.6 °F - 59.0 °F 88% 30.12 in 4.0 mi Calm Calm - N/A   Clear
4:53 AM 61.0 °F - 57.9 °F 90% 30.08 in 9.0 mi Calm Calm - N/A   Clear
5:09 AM 60.8 °F - 57.2 °F 88% 30.11 in 1.8 mi Calm Calm - N/A   Clear
5:20 AM 60.8 °F - 57.2 °F 88% 30.11 in 0.8 mi Calm Calm - N/A   Mist
5:26 AM 60.8 °F - 57.2 °F 88% 30.11 in 1.5 mi Calm Calm - N/A   Partly Cloudy
5:28 AM 60.8 °F - 57.2 °F 88% 30.11 in 3.0 mi Calm Calm - N/A   Partly Cloudy
5:43 AM 60.8 °F - 57.2 °F 88% 30.11 in 9.0 mi Calm Calm - N/A   Mostly Cloudy
5:53 AM 60.1 °F - 57.0 °F 90% 30.09 in 8.0 mi Calm Calm - N/A   Overcast
6:12 AM 60.8 °F - 57.2 °F 88% 30.12 in 0.8 mi Calm Calm - N/A   Overcast
6:38 AM 60.8 °F - 57.2 °F 88% 30.12 in 2.5 mi Calm Calm - N/A   Overcast
6:45 AM 60.8 °F - 57.2 °F 88% 30.13 in 5.0 mi Calm Calm - N/A   Overcast
6:53 AM 60.1 °F - 57.9 °F 93% 30.10 in 7.0 mi Calm Calm - N/A   Overcast
7:19 AM 60.8 °F - 57.2 °F 88% 30.14 in 1.8 mi Calm Calm - N/A   Overcast
7:29 AM 60.8 °F - 57.2 °F 88% 30.14 in 3.0 mi Calm Calm - N/A   Overcast
7:53 AM 60.1 °F - 57.9 °F 93% 30.11 in 8.0 mi Calm Calm - N/A   Scattered Clouds
8:53 AM 64.0 °F - 61.0 °F 90% 30.11 in 10.0 mi Calm Calm - N/A   Clear
9:53 AM 69.1 °F - 63.0 °F 81% 30.11 in 10.0 mi Calm Calm - N/A   Clear
10:53 AM 73.9 °F - 64.9 °F 73% 30.12 in 10.0 mi Variable 3.5 mph - N/A   Clear
11:53 AM 79.0 °F - 64.0 °F 60% 30.10 in 10.0 mi Calm Calm - N/A   Clear
12:53 PM 81.0 °F 82.5 °F 64.0 °F 56% 30.09 in 10.0 mi West 5.8 mph - N/A   Scattered Clouds
1:53 PM 82.9 °F 83.7 °F 62.1 °F 49% 30.07 in 10.0 mi West 8.1 mph - N/A   Clear
2:53 PM 82.9 °F 84.0 °F 63.0 °F 51% 30.05 in 10.0 mi Calm Calm - N/A   Clear
3:53 PM 84.0 °F 84.9 °F 63.0 °F 49% 30.03 in 10.0 mi West 8.1 mph - N/A   Clear
4:53 PM 84.0 °F 84.9 °F 63.0 °F 49% 30.01 in 10.0 mi WSW 8.1 mph - N/A   Partly Cloudy
5:53 PM 84.0 °F 84.9 °F 63.0 °F 49% 30.00 in 10.0 mi SW 4.6 mph - N/A   Clear
6:53 PM 82.0 °F 83.4 °F 64.0 °F 54% 30.00 in 10.0 mi WNW 3.5 mph - N/A   Clear
7:53 PM 79.0 °F - 64.9 °F 62% 30.01 in 10.0 mi Calm Calm - N/A   Clear
8:53 PM 73.0 °F - 66.9 °F 81% 30.01 in 10.0 mi Calm Calm - N/A   Clear
9:53 PM 71.1 °F - 66.0 °F 84% 30.00 in 10.0 mi Calm Calm - N/A   Clear
10:53 PM 70.0 °F - 64.9 °F 84% 30.01 in 10.0 mi Calm Calm - N/A   Clear
11:53 PM 69.1 °F - 64.9 °F 87% 30.01 in 8.0 mi Calm Calm - N/A   Partly Cloudy